RH
67 60 51 68 90 83 99 100 99 100 86 89 85 84 85 76 82 71 40 34 43 46 47 49 49 47 45 43 46 49 50 54 68 77 74 71 71 62 52 49 48 48 50
74 54 49 64 82 95 74 98 100 98 100 98 86 77 82 81 75 80 79 58 40 43 41 41 42 44 44 44 44 48 61 76 80 81 81 76 56 46 44 45 46 52 50
72 56 47 69 80 96 97 100 99 98 97 82 92 87 89 94 90 77 83 81 74 74 65 55 53 38 38 42 50 67 77 81 81 74 81 89 64 57 61 57 50 56 50
85 57 60 74 91 97 86 58 81 100 97 100 100 97 87 93 81 70 72 74 80 87 88 88 76 70 76 82 81 79 78 72 69 89 82 79 88 93 83 74 68 72 58
74 63 66 74 99 98 86 73 69 84 86 99 97 96 87 81 85 74 59 73 87 90 92 92 93 91 91 90 88 82 77 78 83 89 89 94 96 98 100 98 88 77 75
68 70 79 70 87 90 99 83 64 57 76 99 98 100 98 97 98 81 88 86 92 93 94 94 94 91 84 79 80 76 84 88 93 89 98 96 99 98 100 100 99 93 84
78 74 73 88 78 87 95 99 95 83 92 95 98 87 99 100 98 89 95 96 97 99 97 88 87 86 92 82 79 81 83 90 92 97 100 100 98 98 99 100 100 99 98
78 82 63 80 85 69 77 88 92 100 95 82 80 92 92 90 98 100 100 100 97 99 96 91 87 78 70 67 74 84 89 92 99 100 100 99 97 90 99 98 93 98 98
83 80 55 59 86 67 61 82 78 77 80 86 100 78 83 89 82 83 93 96 81 82 92 72 82 66 73 89 91 89 100 92 84 90 86 84 96 94 92 95 89 90 92
87 75 69 53 82 80 71 64 61 65 70 75 82 94 96 98 96 90 77 75 69 81 69 83 84 90 95 100 98 87 83 77 78 77 80 84 85 94 99 100 99 98 100
67 62 64 57 72 70 69 70 75 68 66 72 83 84 84 85 86 85 82 88 94 86 96 99 97 86 91 82 80 85 81 74 75 79 80 86 98 100 100 98 97 95 95
50 45 48 48 66 69 60 60 64 70 66 68 70 77 77 80 82 90 92 96 90 97 89 78 74 74 73 74 77 78 86 88 84 93 99 98 98 75 57 54 53 54 54
43 45 70 70 74 72 66 62 60 59 60 62 64 75 71 73 81 83 79 76 78 84 82 78 73 72 74 74 78 80 87 97 100 98 96 65 54 51 48 46 46 46 47
42 51 67 77 85 62 63 62 60 55 61 69 78 76 76 76 79 76 77 81 83 81 78 76 79 80 83 86 89 93 99 100 90 62 53 50 50 51 51 50 50 50 50
68 50 54 63 69 76 59 59 55 57 63 77 91 82 79 80 77 76 77 74 70 64 60 65 71 79 88 94 98 88 68 55 51 51 54 55 56 57 56 56 55 54 54
79 81 67 67 67 72 79 72 63 60 64 64 73 81 84 82 78 70 69 67 57 59 72 78 80 80 74 64 56 54 52 53 57 58 61 62 63 64 64 62 60 57 58
73 79 83 80 81 76 76 75 72 67 67 66 69 71 74 74 71 65 58 56 62 67 68 62 57 56 55 54 55 56 60 62 64 64 62 62 63 64 68 68 67 64 66
72 73 76 82 86 83 78 74 72 71 73 68 68 70 69 66 63 62 65 69 68 62 57 56 56 57 57 57 60 64 66 66 65 64 64 65 66 66 66 70 75 75 78
69 68 73 74 72 73 73 71 68 67 67 66 65 64 66 69 71 74 72 67 61 60 61 62 61 61 60 62 68 69 69 67 66 67 67 68 70 70 66 73 80 82 88
71 69 67 68 71 68 66 65 66 64 60 62 69 74 76 78 77 73 68 65 65 65 65 66 66 64 64 65 70 72 73 75 72 72 73 76 71 75 74 85 96 98 99
77 77 75 72 69 68 68 67 65 66 69 71 70 71 72 74 73 71 71 71 70 71 71 72 73 73 73 75 77 77 78 76 75 78 82 83 84 84 81 82 89 95 97
77 79 80 79 77 76 76 73 71 70 69 71 72 74 74 74 75 76 76 76 76 74 74 76 76 76 76 76 76 74 73 77 81 88 94 93 89 89 88 75 82 89 97
79 77 76 73 72 72 73 76 77 76 75 74 74 74 73 73 73 74 73 72 72 72 71 71 72 74 75 78 83 85 83 86 89 94 98 99 99 97 92 81 84 92 94
84 82 81 78 74 75 75 75 76 77 79 80 80 80 80 79 80 79 78 78 78 79 78 80 82 83 88 89 86 85 86 87 93 99 99 98 98 100 95 85 90 92 92
82 81 80 80 80 75 75 77 78 78 78 80 82 85 87 87 87 86 86 87 86 87 87 86 86 91 90 88 84 87 85 87 98 99 93 92 100 100 100 88 92 94 89
94 93 93 86 80 76 75 77 76 77 81 84 85 85 86 88 90 91 92 91 90 90 91 95 97 95 91 89 81 84 88 88 94 97 100 99 100 100 100 99 97 95 94
Wind_Speed
22 23 19 23 20 32 39 31 53 51 46 42 39 35 34 31 30 30 30 31 30 31 31 29 27 26 25 22 19 18 17 13 11 11 12 13 15 16 16 16 17 17 17
20 19 20 22 18 14 37 37 48 46 45 42 40 37 36 34 31 31 30 30 30 30 29 28 28 26 24 22 20 18 14 12 12 12 11 10 12 12 11 14 18 20 20
19 17 18 15 10 14 19 33 39 40 41 39 40 38 37 35 32 32 32 32 30 28 27 28 27 25 23 21 19 17 14 11 12 13 12 6 5 9 9 11 15 18 20
18 6 8 10 6 16 32 24 14 16 38 37 38 40 41 38 35 33 33 33 32 28 25 24 22 21 19 18 17 15 14 12 16 17 16 17 20 14 15 13 11 11 14
7 8 8 5 8 15 21 34 36 15 16 37 33 41 40 40 38 36 33 33 31 29 26 22 20 19 18 18 17 16 16 17 17 18 20 18 19 23 27 25 26 24 14
6 7 11 7 13 16 23 26 20 26 27 14 17 39 39 40 40 38 36 35 33 30 28 26 23 20 15 13 15 14 17 18 20 24 21 22 25 25 26 34 37 29 23
6 9 5 15 17 15 16 22 23 20 28 19 17 6 14 22 37 36 38 37 35 32 26 17 16 15 11 15 17 21 23 20 24 22 22 26 21 15 15 20 25 26 26
8 6 9 19 27 25 20 20 17 15 16 12 6 23 14 5 11 21 40 32 26 23 20 14 11 18 27 28 29 27 25 25 16 12 11 10 10 8 8 6 5 5 3
12 11 18 18 27 26 25 20 21 24 23 22 17 18 13 16 26 13 10 18 18 16 20 18 22 20 23 20 26 27 17 14 13 11 7 5 7 6 5 3 4 4 6
11 10 13 20 26 24 25 20 21 23 23 21 15 17 15 17 21 26 24 25 26 26 28 31 27 29 23 19 17 14 12 9 9 8 7 7 8 8 9 10 11 9 13
13 12 12 22 27 24 21 17 18 18 21 18 15 14 15 17 21 29 28 25 21 23 23 21 19 18 17 17 15 15 13 10 9 10 11 13 13 13 13 12 14 15 16
11 16 13 18 19 21 19 17 18 21 19 16 17 17 21 21 21 22 22 21 20 21 19 20 18 17 18 16 15 14 13 12 13 13 14 13 12 11 11 11 11 12 14
9 14 13 17 21 21 21 19 18 16 15 14 15 20 20 19 21 22 22 21 19 19 17 16 16 16 16 16 15 15 16 15 13 13 12 10 9 10 10 11 12 13 14
8 11 14 14 15 19 17 17 17 12 13 14 14 18 19 19 21 21 18 15 15 14 13 13 14 16 18 19 19 18 16 13 10 8 7 7 8 10 11 13 14 15 16
19 8 7 11 13 16 19 19 16 15 11 13 17 19 18 17 16 15 14 12 12 13 14 14 14 14 14 13 13 11 10 9 8 7 6 7 10 13 15 15 16 16 18
22 17 9 10 11 12 13 16 16 14 13 13 14 15 16 15 13 13 12 12 11 12 12 13 13 13 12 11 11 10 9 8 6 5 6 8 10 13 16 16 17 17 16
18 19 16 11 11 12 11 11 13 13 13 13 13 13 13 13 14 13 13 13 14 14 14 13 13 13 12 12 11 10 8 6 5 5 5 8 12 14 16 17 18 16 15
15 15 15 13 11 11 11 11 10 10 10 10 11 12 13 13 13 14 14 15 16 15 15 15 15 14 13 12 10 9 8 8 7 7 8 10 12 12 15 17 17 14 14
12 11 10 8 8 9 9 7 8 9 8 8 10 11 12 13 14 15 16 16 16 15 14 14 13 12 11 11 10 10 10 9 10 11 12 13 14 14 16 17 16 12 13
10 9 7 7 5 4 4 4 6 6 7 8 9 10 11 12 13 14 15 16 16 15 14 13 12 11 11 11 11 12 13 13 15 13 15 13 15 17 14 15 15 13 13
7 7 6 6 4 3 2 3 3 5 6 8 8 10 10 10 12 13 14 14 13 13 13 13 12 12 11 12 11 12 14 15 15 14 14 14 12 11 10 13 14 15 13
4 4 4 3 3 2 2 2 2 2 3 6 8 10 11 13 14 13 13 13 13 13 13 14 13 12 12 14 15 14 13 14 15 14 13 12 12 13 15 15 15 16 13
5 4 4 3 3 1 1 3 3 4 4 5 6 8 10 10 11 13 13 12 13 14 13 13 13 13 14 15 15 15 13 14 15 13 14 13 13 14 12 13 14 14 12
4 3 3 3 4 4 3 2 3 4 6 7 8 9 10 10 11 12 13 14 14 14 13 14 15 14 14 13 13 13 11 12 12 12 13 12 14 14 12 13 13 13 12
4 4 5 5 5 5 5 5 5 5 5 5 5 8 10 10 11 12 12 13 14 15 15 14 14 13 13 11 14 14 12 13 12 13 12 13 15 15 13 13 14 13 12
8 9 9 9 8 8 8 7 6 6 6 7 7 8 9 11 12 12 13 14 13 14 15 15 15 14 13 13 13 14 13 14 13 12 12 12 13 13 13 13 14 14 13
Wind_Direction
259 248 262 309 303 231 245 195 184 187 189 187 185 185 184 187 191 192 191 190 188 185 186 188 192 195 199 202 206 212 219 227 238 251 264 272 277 279 277 273 270 263 256
257 248 249 301 293 216 242 215 185 190 190 193 192 189 190 193 194 194 193 194 193 191 189 192 195 199 203 207 211 214 219 231 246 258 274 289 294 285 275 271 265 260 257
256 249 284 302 300 204 233 150 183 190 192 200 198 193 194 194 194 196 195 195 193 192 193 196 199 202 205 209 211 215 228 243 249 253 252 280 271 294 305 299 280 257 254
238 253 292 320 268 216 222 261 212 193 210 205 204 202 197 196 198 197 198 197 197 197 198 197 196 199 204 208 218 225 236 247 250 252 262 267 266 281 293 288 296 286 258
171 188 243 265 169 178 189 208 223 218 230 196 221 219 208 200 201 194 190 193 196 200 200 200 201 204 212 220 228 237 240 244 255 273 279 274 270 279 274 278 276 267 272
142 169 230 167 140 156 178 191 206 244 218 234 223 222 211 206 202 197 194 194 198 200 203 200 207 213 219 244 227 249 250 249 263 282 272 271 273 288 285 281 270 256 257
183 183 133 136 131 116 158 172 189 207 213 240 264 264 113 184 212 204 202 201 201 206 197 194 217 223 244 252 251 265 249 258 278 280 270 273 283 287 298 291 267 248 261
167 162 118 125 130 123 130 139 159 165 179 190 149 207 248 202 161 179 210 194 182 192 204 212 240 257 258 269 255 244 245 260 262 268 262 277 269 267 291 304 348 349 270
158 147 91 122 138 128 118 142 143 130 124 133 167 142 160 197 225 235 200 200 204 257 225 251 231 214 210 231 240 239 234 243 246 245 246 261 256 255 266 257 283 296 278
152 91 86 122 135 146 131 126 118 122 132 138 158 172 171 183 179 165 180 183 187 198 197 213 217 228 232 223 208 207 206 199 195 200 224 255 266 267 271 284 284 270 256
135 105 122 104 131 141 145 149 155 142 135 144 173 170 169 170 175 184 190 199 214 215 212 194 187 184 191 185 190 198 206 210 220 233 252 270 279 277 276 272 267 267 264
66 52 95 109 137 144 144 152 150 155 145 155 163 170 177 185 181 180 170 169 168 168 172 171 175 186 197 200 203 208 217 225 239 258 272 275 280 280 286 290 286 280 276
57 70 88 138 144 158 159 160 154 151 152 157 162 157 159 164 159 156 155 157 166 180 187 192 193 198 204 213 219 224 235 244 254 264 259 260 267 279 293 299 302 306 304
61 80 110 134 149 149 151 156 147 150 153 159 159 156 157 159 160 164 170 180 193 202 210 213 215 217 220 223 228 236 241 239 235 240 252 266 281 289 296 304 307 311 315
57 72 102 133 155 154 167 161 159 154 163 164 162 168 172 169 174 185 194 202 210 215 218 216 213 212 216 218 213 208 209 214 220 227 256 284 299 303 305 305 307 311 318
44 52 80 111 148 166 170 160 162 163 166 172 174 174 179 183 190 199 205 217 225 221 204 195 189 186 187 187 190 193 198 205 227 261 284 300 305 307 304 302 301 305 313
47 48 58 87 124 149 158 163 159 165 170 173 176 181 188 192 198 208 213 214 209 204 195 190 186 183 184 187 190 194 204 214 233 251 290 308 322 323 311 303 294 295 298
53 59 61 73 101 127 148 163 168 172 176 179 186 194 203 210 215 214 206 199 192 191 190 188 188 187 188 191 199 209 217 223 237 269 289 298 304 310 313 303 287 284 289
54 58 60 79 96 115 129 147 163 176 185 196 198 204 207 207 206 203 200 194 194 194 194 193 193 194 196 204 215 223 233 247 267 268 274 278 287 298 309 309 290 280 278
61 61 63 59 72 96 110 140 160 182 203 209 207 201 199 197 200 198 198 196 194 195 196 197 200 208 218 228 233 239 243 248 256 263 276 281 294 301 315 322 315 302 296
54 63 66 74 80 72 69 100 133 152 167 184 193 198 198 199 201 203 202 201 196 197 202 204 212 219 228 238 246 252 255 261 270 272 279 286 290 285 297 316 303 296 294
59 34 22 37 60 69 122 142 151 163 180 186 187 193 197 201 203 202 205 205 203 208 212 214 220 227 236 241 243 252 263 274 279 277 270 273 282 277 283 299 298 297 292
17 12 5 353 2 24 265 229 219 211 214 215 220 218 214 212 212 214 216 222 225 230 232 233 237 240 246 248 246 251 263 273 271 273 269 265 275 278 286 303 302 302 302
340 324 315 334 344 345 337 301 261 249 240 234 235 240 237 233 232 229 227 232 237 238 239 237 235 233 238 245 254 258 264 263 270 260 261 267 273 279 287 298 293 293 283
314 316 320 315 309 307 298 289 282 271 262 254 244 240 242 241 244 244 246 245 243 240 237 234 235 244 248 249 259 253 255 259 257 256 266 269 272 277 285 283 279 286 282
308 303 299 290 293 298 292 285 283 286 283 280 277 268 260 253 248 250 248 242 234 232 238 239 239 245 255 259 258 253 251 255 257 261 265 267 271 276 280 275 276 278 283